| time (UTC) | temp F | wind direction | speed knots | gust knots | rain 1hr in | rain 24hr in | rain mn in | humidity % | barometer mb |
| 20260505153104 | 38 | 319 | 0.0 | 1.7 | 0.01 | 0.28 | 0.11 | 93 | 1008.7 |
| 20260505152104 | 38 | 313 | 0.0 | 0.9 | 0.01 | 0.28 | 0.11 | 93 | 1008.8 |
| 20260505151604 | 37 | 340 | 0.0 | 1.7 | 0.01 | 0.28 | 0.11 | 93 | 1008.8 |
| 20260505151104 | 37 | 340 | 0.0 | 1.7 | 0.01 | 0.27 | 0.10 | 93 | 1008.7 |
| 20260505150604 | 37 | 328 | 0.0 | 1.7 | 0.01 | 0.27 | 0.10 | 92 | 1008.7 |
| 20260505150104 | 37 | 325 | 0.9 | 1.7 | 0.01 | 0.27 | 0.10 | 92 | 1008.7 |
| 20260505140604 | 37 | 331 | 0.0 | 2.6 | 0.01 | 0.26 | 0.09 | 92 | 1008.6 |
| 20260505140104 | 37 | 334 | 0.0 | 1.7 | 0.01 | 0.26 | 0.09 | 92 | 1008.6 |
| 20260505130105 | 38 | 324 | 0.9 | 1.7 | 0.03 | 0.25 | 0.08 | 92 | 1007.6 |
| 20260505123604 | 38 | 325 | 0.0 | 2.6 | 0.07 | 0.25 | 0.08 | 91 | 1007.0 |
| 20260505123105 | 38 | 316 | 0.0 | 2.6 | 0.07 | 0.25 | 0.08 | 91 | 1006.8 |
| 20260505122105 | 38 | 333 | 0.9 | 4.3 | 0.07 | 0.24 | 0.07 | 91 | 1006.6 |
| 20260505121104 | 38 | 320 | 0.0 | 2.6 | 0.06 | 0.23 | 0.06 | 91 | 1006.6 |
| 20260505120604 | 38 | 317 | 0.9 | 2.6 | 0.05 | 0.22 | 0.05 | 91 | 1006.5 |
| 20260505120104 | 38 | 317 | 0.0 | 2.6 | 0.05 | 0.22 | 0.05 | 91 | 1006.5 |
| 20260505115604 | 39 | 318 | 0.9 | 2.6 | 0.04 | 0.21 | 0.04 | 90 | 1006.4 |
| 20260505115104 | 39 | 321 | 0.0 | 2.6 | 0.04 | 0.21 | 0.04 | 90 | 1006.3 |
| 20260505114604 | 39 | 342 | 0.0 | 2.6 | 0.03 | 0.20 | 0.03 | 90 | 1006.2 |
| 20260505114104 | 39 | 304 | 0.9 | 2.6 | 0.02 | 0.19 | 0.02 | 90 | 1006.0 |
| 20260505113604 | 39 | 343 | 0.9 | 6.1 | 0.01 | 0.18 | 0.01 | 89 | 1006.0 |
| 20260505113104 | 40 | 324 | 1.7 | 6.1 | 0.01 | 0.18 | 0.01 | 89 | 1006.1 |
| 20260505112604 | 40 | 332 | 2.6 | 4.3 | 0.00 | 0.17 | 0.00 | 89 | 1006.0 |
| 20260505112105 | 40 | 292 | 0.9 | 7.0 | 0.00 | 0.17 | 0.00 | 88 | 1005.9 |
| 20260505111604 | 40 | 308 | 2.6 | 7.0 | 0.00 | 0.17 | 0.00 | 88 | 1005.8 |
| 20260505111104 | 41 | 346 | 0.9 | 5.2 | 0.00 | 0.17 | 0.00 | 88 | 1005.7 |
| 20260505110604 | 41 | 310 | 1.7 | 4.3 | 0.00 | 0.17 | 0.00 | 89 | 1005.6 |
| 20260505110104 | 41 | 306 | 1.7 | 5.2 | 0.00 | 0.17 | 0.00 | 88 | 1005.5 |
| 20260505102104 | 42 | 325 | 0.9 | 5.2 | 0.00 | 0.17 | 0.00 | 90 | 1004.6 |
| 20260505101604 | 42 | 326 | 1.7 | 5.2 | 0.00 | 0.17 | 0.00 | 90 | 1004.2 |
| 20260505101104 | 42 | 351 | 1.7 | 5.2 | 0.00 | 0.17 | 0.00 | 90 | 1003.8 |
| 20260505100604 | 43 | 345 | 1.7 | 5.2 | 0.00 | 0.17 | 0.00 | 90 | 1003.6 |
| 20260505095604 | 43 | 331 | 0.9 | 2.6 | 0.00 | 0.17 | 0.00 | 89 | 1003.8 |
| 20260505095104 | 43 | 335 | 0.9 | 2.6 | 0.00 | 0.17 | 0.00 | 89 | 1003.9 |
| 20260505094604 | 43 | 322 | 0.9 | 8.7 | 0.00 | 0.17 | 0.00 | 89 | 1003.7 |
| 20260505094104 | 44 | 334 | 1.7 | 8.7 | 0.00 | 0.17 | 0.00 | 89 | 1003.7 |
| 20260505093605 | 44 | 340 | 1.7 | 8.7 | 0.00 | 0.17 | 0.00 | 89 | 1003.7 |
| 20260505093104 | 45 | 296 | 0.9 | 5.2 | 0.00 | 0.17 | 0.00 | 90 | 1003.7 |
| 20260505092105 | 47 | 331 | 0.9 | 5.2 | 0.00 | 0.17 | 0.00 | 92 | 1003.5 |
| 20260505091604 | 47 | 321 | 0.0 | 0.9 | 0.00 | 0.17 | 0.00 | 92 | 1003.5 |
| 20260505091104 | 47 | 318 | 0.0 | 0.9 | 0.00 | 0.17 | 0.00 | 92 | 1003.4 |
| 20260505090604 | 47 | 317 | 0.0 | 1.7 | 0.00 | 0.17 | 0.00 | 92 | 1003.4 |
| 20260505090105 | 47 | 317 | 0.0 | 1.7 | 0.00 | 0.17 | 0.00 | 92 | 1003.4 |
| 20260505085604 | 47 | 322 | 0.0 | 2.6 | 0.00 | 0.17 | 0.00 | 92 | 1003.3 |
| 20260505085104 | 47 | 323 | 0.0 | 2.6 | 0.00 | 0.17 | 0.00 | 91 | 1003.3 |
| 20260505084604 | 47 | 315 | 0.0 | 1.7 | 0.00 | 0.17 | 0.00 | 91 | 1003.4 |
| 20260505083604 | 47 | 303 | 0.0 | 0.9 | 0.00 | 0.17 | 0.00 | 91 | 1003.4 |
| 20260505083104 | 47 | 226 | 0.0 | 0.0 | 0.00 | 0.17 | 0.00 | 91 | 1003.3 |
| 20260505082605 | 47 | 226 | 0.0 | 0.0 | 0.00 | 0.17 | 0.00 | 91 | 1003.2 |
| 20260505082104 | 47 | 226 | 0.0 | 0.0 | 0.00 | 0.17 | 0.00 | 91 | 1003.3 |
| 20260505081104 | 47 | 226 | 0.0 | 0.0 | 0.00 | 0.17 | 0.00 | 91 | 1003.3 |
| 20260505080604 | 47 | 226 | 0.0 | 1.7 | 0.00 | 0.17 | 0.00 | 91 | 1003.4 |
| 20260505080104 | 47 | 226 | 0.0 | 1.7 | 0.00 | 0.17 | 0.00 | 91 | 1003.3 |
| 20260505075604 | 47 | 226 | 0.0 | 0.9 | 0.00 | 0.17 | 0.00 | 91 | 1003.2 |
| 20260505075104 | 47 | 189 | 0.0 | 1.7 | 0.00 | 0.17 | 0.00 | 91 | 1003.2 |
| 20260505074604 | 47 | 180 | 0.0 | 1.7 | 0.00 | 0.17 | 0.00 | 91 | 1003.3 |
| 20260505074105 | 47 | 223 | 0.0 | 1.7 | 0.00 | 0.17 | 0.00 | 91 | 1003.4 |
| 20260505073605 | 47 | 198 | 0.0 | 1.7 | 0.00 | 0.17 | 0.00 | 91 | 1003.4 |
| 20260505073105 | 47 | 201 | 0.0 | 1.7 | 0.00 | 0.17 | 0.00 | 91 | 1003.6 |
| 20260505072604 | 47 | 214 | 0.0 | 1.7 | 0.00 | 0.17 | 0.00 | 91 | 1003.8 |
| 20260505072104 | 47 | 221 | 0.0 | 1.7 | 0.00 | 0.17 | 0.00 | 91 | 1003.7 |
| 20260505071604 | 47 | 223 | 0.0 | 1.7 | 0.00 | 0.17 | 0.00 | 91 | 1003.8 |
| 20260505071104 | 48 | 192 | 0.0 | 1.7 | 0.00 | 0.17 | 0.00 | 91 | 1003.7 |
| 20260505070104 | 48 | 199 | 0.0 | 1.7 | 0.00 | 0.17 | 0.00 | 91 | 1003.9 |
| 20260505065104 | 47 | 155 | 0.0 | 0.0 | 0.00 | 0.17 | 0.00 | 91 | 1003.8 |
| 20260505064604 | 47 | 155 | 0.0 | 0.0 | 0.00 | 0.17 | 0.00 | 91 | 1004.0 |
| 20260505064104 | 47 | 155 | 0.0 | 0.0 | 0.00 | 0.17 | 0.00 | 91 | 1003.9 |
| 20260505063604 | 47 | 155 | 0.0 | 0.0 | 0.00 | 0.17 | 0.00 | 90 | 1004.0 |
| 20260505062604 | 47 | 147 | 0.0 | 1.7 | 0.00 | 0.17 | 0.00 | 90 | 1004.1 |
| 20260505062104 | 47 | 232 | 0.0 | 0.0 | 0.00 | 0.17 | 0.00 | 90 | 1004.0 |
| 20260505061604 | 47 | 232 | 0.0 | 0.0 | 0.00 | 0.17 | 0.00 | 90 | 1004.0 |
| 20260505061104 | 47 | 232 | 0.0 | 0.9 | 0.00 | 0.17 | 0.00 | 90 | 1004.0 |
| 20260505060604 | 47 | 232 | 0.0 | 0.9 | 0.00 | 0.17 | 0.00 | 90 | 1004.1 |
| 20260505060104 | 47 | 279 | 0.0 | 0.9 | 0.00 | 0.17 | 0.00 | 90 | 1004.2 |
| 20260505055104 | 47 | 281 | 0.0 | 0.0 | 0.00 | 0.17 | 0.17 | 90 | 1004.3 |
| 20260505054604 | 47 | 281 | 0.0 | 0.0 | 0.00 | 0.17 | 0.17 | 89 | 1004.4 |
| 20260505054104 | 47 | 281 | 0.0 | 0.0 | 0.00 | 0.17 | 0.17 | 89 | 1004.5 |
| 20260505053604 | 47 | 281 | 0.0 | 0.0 | 0.01 | 0.17 | 0.17 | 89 | 1004.1 |
| 20260505052604 | 47 | 281 | 0.0 | 0.0 | 0.01 | 0.17 | 0.17 | 88 | 1004.2 |
| 20260505052104 | 47 | 281 | 0.0 | 0.0 | 0.01 | 0.17 | 0.17 | 88 | 1004.2 |
| 20260505051604 | 47 | 281 | 0.0 | 0.0 | 0.02 | 0.17 | 0.17 | 88 | 1004.1 |
| 20260505051104 | 47 | 281 | 0.0 | 0.0 | 0.02 | 0.17 | 0.17 | 88 | 1004.3 |
| 20260505050604 | 47 | 281 | 0.0 | 0.0 | 0.03 | 0.17 | 0.17 | 88 | 1004.5 |
| 20260505050104 | 47 | 281 | 0.0 | 0.0 | 0.04 | 0.17 | 0.17 | 87 | 1004.5 |
| 20260505041604 | 48 | 281 | 0.0 | 1.7 | 0.14 | 0.15 | 0.15 | 85 | 1004.5 |
| 20260505041104 | 48 | 286 | 0.0 | 1.7 | 0.14 | 0.15 | 0.15 | 85 | 1004.6 |
| 20260505040604 | 48 | 284 | 0.0 | 1.7 | 0.13 | 0.14 | 0.14 | 85 | 1004.7 |
| 20260505040105 | 49 | 332 | 0.0 | 1.7 | 0.12 | 0.13 | 0.13 | 85 | 1004.4 |
| 20260505035104 | 49 | 344 | 0.0 | 1.7 | 0.11 | 0.12 | 0.12 | 84 | 1004.3 |
| 20260505034605 | 49 | 267 | 0.0 | 1.7 | 0.10 | 0.11 | 0.11 | 83 | 1004.3 |
| 20260505034105 | 49 | 298 | 0.0 | 1.7 | 0.10 | 0.11 | 0.11 | 82 | 1004.3 |
| 20260505033604 | 50 | 325 | 0.0 | 1.7 | 0.09 | 0.10 | 0.10 | 79 | 1004.2 |
| 20260505033104 | 51 | 339 | 0.0 | 1.7 | 0.07 | 0.08 | 0.08 | 78 | 1004.3 |
| 20260505031604 | 53 | 311 | 0.0 | 1.7 | 0.00 | 0.01 | 0.01 | 68 | 1003.9 |
| 20260505031104 | 54 | 327 | 0.0 | 1.7 | 0.00 | 0.01 | 0.01 | 66 | 1003.7 |
| 20260505030604 | 54 | 358 | 0.9 | 1.7 | 0.00 | 0.01 | 0.01 | 66 | 1003.6 |
| 20260505030104 | 54 | 255 | 0.0 | 1.7 | 0.00 | 0.01 | 0.01 | 64 | 1003.2 |
| 20260505025604 | 54 | 235 | 0.0 | 0.9 | 0.00 | 0.01 | 0.01 | 63 | 1002.9 |
| 20260505025104 | 54 | 235 | 0.0 | 1.7 | 0.00 | 0.01 | 0.01 | 63 | 1002.7 |
| 20260505024604 | 54 | 235 | 0.0 | 1.7 | 0.00 | 0.01 | 0.01 | 64 | 1002.7 |
| 20260505023604 | 54 | 234 | 0.0 | 2.6 | 0.00 | 0.01 | 0.01 | 64 | 1002.5 |
| 20260505023104 | 54 | 233 | 0.0 | 2.6 | 0.00 | 0.01 | 0.01 | 65 | 1002.4 |
| 20260505022604 | 53 | 258 | 0.0 | 0.9 | 0.00 | 0.01 | 0.01 | 66 | 1002.3 |
| 20260505021604 | 53 | 331 | 0.0 | 0.0 | 0.00 | 0.01 | 0.01 | 65 | 1002.2 |
| 20260505021105 | 53 | 331 | 0.0 | 0.0 | 0.00 | 0.01 | 0.01 | 64 | 1002.0 |
| 20260505020604 | 54 | 331 | 0.0 | 0.0 | 0.00 | 0.01 | 0.01 | 64 | 1002.0 |
| 20260505020105 | 54 | 331 | 0.0 | 0.0 | 0.00 | 0.01 | 0.01 | 64 | 1002.0 |
| 20260505015604 | 54 | 331 | 0.0 | 0.0 | 0.00 | 0.01 | 0.01 | 64 | 1002.0 |
| 20260505015105 | 54 | 331 | 0.0 | 0.0 | 0.01 | 0.01 | 0.01 | 63 | 1001.9 |
| 20260505014604 | 54 | 331 | 0.0 | 0.0 | 0.01 | 0.01 | 0.01 | 63 | 1002.0 |
| 20260505014104 | 54 | 331 | 0.0 | 1.7 | 0.01 | 0.01 | 0.01 | 62 | 1001.7 |
| 20260505013604 | 54 | 331 | 0.0 | 1.7 | 0.01 | 0.01 | 0.01 | 62 | 1001.5 |
| 20260505013104 | 54 | 331 | 0.0 | 0.0 | 0.01 | 0.01 | 0.01 | 63 | 1001.7 |
| 20260505012604 | 54 | 331 | 0.0 | 1.7 | 0.01 | 0.01 | 0.01 | 62 | 1001.9 |
| 20260505011604 | 55 | 331 | 0.0 | 1.7 | 0.01 | 0.01 | 0.01 | 63 | 1001.9 |
| 20260505011104 | 55 | 331 | 0.0 | 0.9 | 0.01 | 0.01 | 0.01 | 65 | 1001.8 |
| 20260505010604 | 55 | 331 | 0.0 | 1.7 | 0.01 | 0.01 | 0.01 | 64 | 1001.7 |
| 20260505010104 | 55 | 340 | 0.0 | 1.7 | 0.01 | 0.01 | 0.01 | 65 | 1001.5 |
| 20260505005605 | 55 | 329 | 0.0 | 1.7 | 0.01 | 0.01 | 0.01 | 64 | 1001.6 |
| 20260505004604 | 56 | 311 | 0.0 | 2.6 | 0.00 | 0.00 | 0.00 | 61 | 1001.8 |
| 20260505004104 | 56 | 326 | 0.0 | 2.6 | 0.00 | 0.00 | 0.00 | 59 | 1001.7 |
| 20260505003604 | 57 | 258 | 0.9 | 2.6 | 0.00 | 0.00 | 0.00 | 56 | 1001.7 |
| 20260505002604 | 59 | 312 | 1.7 | 7.0 | 0.00 | 0.00 | 0.00 | 50 | 1001.5 |
| 20260505002104 | 60 | 288 | 0.9 | 2.6 | 0.00 | 0.00 | 0.00 | 45 | 1001.6 |
| 20260505001104 | 60 | 284 | 0.9 | 2.6 | 0.00 | 0.00 | 0.00 | 43 | 1001.4 |
| 20260505000105 | 60 | 256 | 0.0 | 2.6 | 0.00 | 0.00 | 0.00 | 43 | 1001.1 |
| 20260504235604 | 60 | 325 | 0.0 | 2.6 | 0.00 | 0.00 | 0.00 | 42 | 1001.0 |
| 20260504235104 | 61 | 262 | 0.0 | 1.7 | 0.00 | 0.00 | 0.00 | 42 | 1000.8 |
| 20260504234604 | 61 | 301 | 0.0 | 5.2 | 0.00 | 0.00 | 0.00 | 42 | 1000.6 |
| 20260504234104 | 61 | 317 | 0.9 | 5.2 | 0.00 | 0.00 | 0.00 | 41 | 1000.3 |
| 20260504233604 | 61 | 346 | 1.7 | 7.8 | 0.00 | 0.00 | 0.00 | 41 | 1000.2 |
| 20260504233104 | 62 | 326 | 1.7 | 7.8 | 0.00 | 0.00 | 0.00 | 40 | 1000.1 |
| 20260504232604 | 62 | 331 | 1.7 | 5.2 | 0.00 | 0.00 | 0.00 | 39 | 1000.0 |
| 20260504232104 | 62 | 309 | 0.9 | 5.2 | 0.00 | 0.00 | 0.00 | 37 | 1000.0 |
| 20260504231604 | 62 | 328 | 0.9 | 4.3 | 0.00 | 0.00 | 0.00 | 37 | 999.9 |
| 20260504231104 | 63 | 327 | 1.7 | 5.2 | 0.00 | 0.00 | 0.00 | 36 | 999.9 |
| 20260504230604 | 63 | 328 | 1.7 | 5.2 | 0.00 | 0.00 | 0.00 | 36 | 999.7 |
| 20260504230104 | 63 | 328 | 1.7 | 4.3 | 0.00 | 0.00 | 0.00 | 36 | 999.5 |
| 20260504225604 | 63 | 338 | 1.7 | 6.1 | 0.00 | 0.00 | 0.00 | 36 | 999.3 |
| 20260504225104 | 63 | 330 | 1.7 | 6.1 | 0.00 | 0.00 | 0.00 | 36 | 999.1 |
| 20260504224604 | 64 | 317 | 1.7 | 6.1 | 0.00 | 0.00 | 0.00 | 35 | 999.1 |
| 20260504223604 | 64 | 342 | 1.7 | 5.2 | 0.00 | 0.00 | 0.00 | 34 | 999.4 |
| 20260504223104 | 64 | 327 | 0.9 | 5.2 | 0.00 | 0.00 | 0.00 | 34 | 999.3 |
| 20260504222605 | 64 | 323 | 1.7 | 8.7 | 0.00 | 0.00 | 0.00 | 34 | 999.3 |
| 20260504222104 | 65 | 334 | 3.5 | 8.7 | 0.00 | 0.00 | 0.00 | 33 | 999.3 |
| 20260504221604 | 66 | 316 | 2.6 | 8.7 | 0.00 | 0.00 | 0.00 | 31 | 999.2 |
| 20260504221103 | 68 | 351 | 4.3 | 7.8 | 0.00 | 0.00 | 0.00 | 28 | 998.8 |
| 20260504220604 | 69 | 19 | 0.9 | 5.2 | 0.00 | 0.00 | 0.00 | 25 | 998.6 |
| 20260504215604 | 69 | 26 | 0.9 | 4.3 | 0.00 | 0.00 | 0.00 | 26 | 998.3 |
| 20260504215104 | 69 | 349 | 0.9 | 6.1 | 0.00 | 0.00 | 0.00 | 25 | 998.5 |
| 20260504214604 | 70 | 7 | 0.9 | 6.1 | 0.00 | 0.00 | 0.00 | 24 | 998.5 |
| 20260504213604 | 71 | 318 | 0.9 | 2.6 | 0.00 | 0.00 | 0.00 | 25 | 998.6 |
| 20260504213104 | 72 | 303 | 0.9 | 4.3 | 0.00 | 0.00 | 0.00 | 25 | 998.6 |
| 20260504212604 | 72 | 309 | 0.9 | 4.3 | 0.00 | 0.00 | 0.00 | 25 | 998.6 |
| 20260504212104 | 72 | 322 | 0.9 | 4.3 | 0.00 | 0.00 | 0.00 | 25 | 998.7 |
| 20260504211604 | 72 | 322 | 0.9 | 2.6 | 0.00 | 0.00 | 0.00 | 26 | 998.9 |
| 20260504211104 | 72 | 231 | 0.9 | 2.6 | 0.00 | 0.00 | 0.00 | 26 | 998.9 |
| 20260504210604 | 72 | 310 | 0.0 | 2.6 | 0.00 | 0.00 | 0.00 | 27 | 999.1 |
| 20260504205104 | 72 | 332 | 0.9 | 5.2 | 0.00 | 0.00 | 0.00 | 26 | 999.2 |
| 20260504204604 | 71 | 325 | 1.7 | 7.8 | 0.00 | 0.00 | 0.00 | 26 | 999.3 |
| 20260504204104 | 71 | 338 | 2.6 | 7.8 | 0.00 | 0.00 | 0.00 | 26 | 999.3 |
| 20260504203604 | 71 | 334 | 0.9 | 6.1 | 0.00 | 0.00 | 0.00 | 26 | 999.4 |
| 20260504203104 | 71 | 302 | 1.7 | 7.0 | 0.00 | 0.00 | 0.00 | 28 | 999.6 |
| 20260504202604 | 70 | 321 | 1.7 | 7.0 | 0.00 | 0.00 | 0.00 | 28 | 999.6 |
| 20260504202105 | 70 | 344 | 1.7 | 7.0 | 0.00 | 0.00 | 0.00 | 26 | 999.7 |
| 20260504201605 | 70 | 11 | 1.7 | 10.4 | 0.00 | 0.00 | 0.00 | 27 | 999.7 |
| 20260504201104 | 71 | 335 | 1.7 | 10.4 | 0.00 | 0.00 | 0.00 | 26 | 999.7 |
| 20260504200604 | 72 | 319 | 1.7 | 7.0 | 0.00 | 0.00 | 0.00 | 27 | 999.6 |
| 20260504200104 | 72 | 327 | 1.7 | 7.8 | 0.00 | 0.00 | 0.00 | 25 | 999.7 |
| 20260504195604 | 72 | 333 | 1.7 | 7.8 | 0.00 | 0.00 | 0.00 | 28 | 999.7 |
| 20260504195104 | 71 | 325 | 2.6 | 7.0 | 0.00 | 0.00 | 0.00 | 25 | 999.7 |
| 20260504194604 | 72 | 354 | 1.7 | 7.0 | 0.00 | 0.00 | 0.00 | 25 | 999.8 |
| 20260504194104 | 71 | 307 | 1.7 | 7.8 | 0.00 | 0.00 | 0.00 | 27 | 999.6 |
| 20260504193605 | 71 | 333 | 3.5 | 7.8 | 0.00 | 0.00 | 0.00 | 26 | 999.5 |
| 20260504193104 | 71 | 338 | 2.6 | 7.8 | 0.00 | 0.00 | 0.00 | 26 | 999.6 |
| 20260504192604 | 71 | 329 | 1.7 | 5.2 | 0.00 | 0.00 | 0.00 | 29 | 999.7 |
| 20260504192104 | 70 | 348 | 1.7 | 7.0 | 0.00 | 0.00 | 0.00 | 28 | 999.7 |
| 20260504191604 | 69 | 10 | 0.0 | 7.0 | 0.00 | 0.00 | 0.00 | 31 | 999.7 |
| 20260504191104 | 69 | 331 | 3.5 | 8.7 | 0.00 | 0.00 | 0.00 | 30 | 999.8 |
| 20260504190105 | 67 | 300 | 0.9 | 7.8 | 0.00 | 0.00 | 0.00 | 34 | 999.6 |
| 20260504185605 | 65 | 332 | 2.6 | 7.8 | 0.00 | 0.00 | 0.00 | 33 | 999.7 |
| 20260504185104 | 64 | 316 | 0.9 | 7.8 | 0.00 | 0.00 | 0.00 | 34 | 999.8 |
| 20260504184605 | 63 | 327 | 2.6 | 7.8 | 0.00 | 0.00 | 0.00 | 34 | 999.8 |
| 20260504184104 | 63 | 322 | 0.0 | 5.2 | 0.00 | 0.00 | 0.00 | 37 | 999.8 |
| 20260504183604 | 63 | 333 | 0.9 | 5.2 | 0.00 | 0.00 | 0.00 | 38 | 1000.0 |
| 20260504183104 | 64 | 321 | 0.9 | 4.3 | 0.00 | 0.00 | 0.00 | 36 | 1000.1 |
| 20260504182605 | 65 | 335 | 1.7 | 4.3 | 0.00 | 0.00 | 0.00 | 29 | 1000.1 |
| 20260504182104 | 66 | 340 | 0.9 | 2.6 | 0.00 | 0.00 | 0.00 | 33 | 1000.1 |
| 20260504181604 | 66 | 342 | 0.9 | 2.6 | 0.00 | 0.00 | 0.00 | 32 | 1000.0 |
| 20260504181105 | 66 | 26 | 1.7 | 4.3 | 0.00 | 0.00 | 0.00 | 26 | 1000.0 |
| 20260504180605 | 67 | 12 | 1.7 | 4.3 | 0.00 | 0.00 | 0.00 | 26 | 999.9 |
| 20260504180104 | 67 | 331 | 1.7 | 4.3 | 0.00 | 0.00 | 0.00 | 25 | 999.9 |
| 20260504175604 | 68 | 86 | 1.7 | 2.6 | 0.00 | 0.00 | 0.00 | 25 | 999.9 |
| 20260504175104 | 68 | 22 | 0.0 | 2.6 | 0.00 | 0.00 | 0.00 | 26 | 999.9 |
| 20260504174604 | 69 | 357 | 0.9 | 2.6 | 0.00 | 0.00 | 0.00 | 24 | 999.8 |
| 20260504174104 | 69 | 337 | 0.9 | 5.2 | 0.00 | 0.00 | 0.00 | 27 | 999.8 |
| 20260504173604 | 70 | 8 | 1.7 | 5.2 | 0.00 | 0.00 | 0.00 | 25 | 999.8 |
| 20260504173104 | 70 | 0 | 0.0 | 2.6 | 0.00 | 0.00 | 0.00 | 23 | 999.8 |
| 20260504172604 | 71 | 36 | 1.7 | 4.3 | 0.00 | 0.00 | 0.00 | 22 | 999.8 |
| 20260504172104 | 72 | 74 | 1.7 | 6.1 | 0.00 | 0.00 | 0.00 | 21 | 999.8 |
| 20260504171604 | 73 | 78 | 1.7 | 6.1 | 0.00 | 0.00 | 0.00 | 22 | 999.9 |
| 20260504171104 | 73 | 115 | 1.7 | 4.3 | 0.00 | 0.00 | 0.00 | 21 | 1000.0 |
| 20260504170604 | 72 | 58 | 0.9 | 7.0 | 0.00 | 0.00 | 0.00 | 23 | 1000.1 |
| 20260504170104 | 72 | 91 | 1.7 | 7.0 | 0.00 | 0.00 | 0.00 | 22 | 1000.1 |
| 20260504160104 | 71 | 11 | 0.0 | 1.7 | 0.00 | 0.00 | 0.00 | 24 | 1000.9 |